Location: Rimrock Meadows
(47.4808°N, 119.7286°W)
Time: 20:55:44
(UTC-07:00)

Daily predictions for brighter satellites

Satellite Brightness Start Highest point End
(mag) Time Altitude Azimuth Time Altitude Azimuth Time Altitude Azimuth
ARGOS 4.1 21:19:18 10° SE 21:24:11 36° ENE 21:29:05 10° N
COSMOS 2455 2.8 21:20:36 10° SSW 21:26:35 74° ESE 21:32:36 10° NE
ALOS 4.1 21:22:43 10° SSW 21:26:48 30° W 21:30:55 10° NNW
MetOp-B 4.3 21:27:45 10° SSE 21:33:03 66° ENE 21:38:23 10° N
CZ-4B R/B 4.1 21:28:19 10° NNE 21:33:05 38° E 21:37:55 10° SSE
Cosmos 1602 Rocket 4.3 21:30:00 10° SSW 21:34:24 59° WNW 21:38:50 10° N
Cosmos 1766 4.4 21:31:16 10° N 21:34:52 30° ENE 21:38:26 10° SE
Cosmos 2369 Rocket 2.3 21:29:09 10° NNW 21:34:52 88° WSW 21:40:30 10° SSE
CZ-2C R/B 3.4 21:36:05 10° SW 21:37:33 15° W 21:39:02 10° NW
PSLV R/B 4.4 21:34:53 10° WSW 21:37:58 28° S 21:41:05 10° ESE
Cosmos 1825 Rocket 3.8 21:33:46 10° S 21:38:04 52° E 21:42:23 10° NNE
Cosmos 1190 Rocket 4.2 21:35:29 10° S 21:40:36 51° ESE 21:45:46 10° NNE
Cosmos 1812 Rocket 4.4 21:37:51 10° NNW 21:42:07 51° W 21:46:24 10° S
YAOGAN 6 2.9 21:41:09 10° SSE 21:44:48 57° ENE 21:48:31 10° N
H-2A R/B 3.2 21:45:34 10° ESE 21:49:50 29° ENE 21:54:13 10° N
CZ-4 SHROUD 4.0 21:47:17 10° S 21:50:20 49° W 21:53:27 10° NNW
NOAA 11 4.5 21:47:33 10° SE 21:52:46 54° ENE 21:58:03 10° N
SPOT 5 3.1 21:51:58 10° S 21:56:15 58° WSW 22:00:32 10° NNW
PSLV R/B 4.2 21:53:18 10° S 21:56:17 43° W 21:59:18 10° NNW
ATLAS 3B R/B 3.0 21:49:28 10° SSW 21:57:02 64° ESE 22:04:26 10° NE
Lacrosse 4 Rocket 1.4 21:53:22 10° SSW 21:57:20 58° ESE 22:01:24 10° NE
H-2A R/B 3.8 21:53:36 10° SSW 21:57:23 29° W 22:01:16 10° NW
Terra 3.0 21:53:35 11° ESE 21:57:26 29° ENE 22:01:33 10° N
Cosmos 2084 3.6 21:53:27 10° NW 21:57:31 63° NE 22:01:12 13° SE
Cosmos 676 Rocket 4.4 21:52:54 10° S 21:57:56 44° ESE 22:03:00 10° NNE
SPOT 1/Viking Rocket 3.6 21:53:38 10° SSE 21:58:47 79° ENE 22:03:58 10° NNW
UNK 4.2 21:54:07 10° NNE 21:59:35 77° ESE 22:05:20 10° SSW
Cosmos 1515 4.2 21:56:22 10° SSW 22:00:12 62° WNW 22:04:03 10° N
Lacrosse 5 3.8 22:02:09 10° NW 22:06:31 28° N 22:10:53 10° ENE
Cosmos 2263 4.4 22:02:42 10° NNW 22:08:17 68° WSW 22:13:26 12° SSE
USA 234 3.3 22:09:10 13° SE 22:15:08 82° SW 22:21:46 10° NW
CZ-4C R/B 3.4 22:14:31 16° SSE 22:17:41 67° ENE 22:21:37 10° N
USA 245 4.2 22:13:44 10° S 22:19:25 71° WSW 22:24:06 10° NNW
COSMOS 2406 3.9 22:15:41 13° SSE 22:20:05 34° ESE 22:25:12 10° NE
SL-27 R/B 3.0 22:18:58 19° SSE 22:20:52 36° ESE 22:23:59 10° NE
Envisat 4.4 22:16:34 10° SSW 22:21:09 34° W 22:25:46 10° NNW
SL-8 R/B 3.7 22:18:44 10° WNW 22:23:35 77° SSW 22:27:36 15° ESE
Cosmos 407 Rocket 3.5 22:20:01 10° SSW 22:25:17 86° WNW 22:30:32 10° NNE
Atlas Centaur 2 4.2 22:20:04 10° SW 22:25:18 20° S 22:28:39 16° SSE
Cosmos-2242 3.1 22:20:56 10° N 22:25:21 69° E 22:28:28 19° SSE
Cosmos 1953 Rocket 3.9 22:21:48 10° SSW 22:26:12 68° W 22:30:39 10° N
Cosmos 1943 Rocket 2.2 22:22:11 10° NNW 22:27:46 83° WSW 22:31:58 18° SSE
COSMOS 2487 4.4 22:28:09 15° ESE 22:28:27 15° E 22:30:35 10° ENE
Cosmos 1900 4.4 22:23:20 10° SSW 22:28:30 87° SE 22:33:40 10° NE
Cosmos 1953 2.4 22:25:39 10° N 22:29:37 62° E 22:32:04 22° SSE
Lacrosse 5 rocket 3.9 22:29:14 10° NW 22:32:25 22° N 22:35:43 10° NE
Cosmos 1656 Rocket 4.0 22:30:45 10° NNW 22:36:24 61° ENE 22:40:20 20° SE
Cosmos 1943 4.0 22:33:35 10° SW 22:39:09 54° WNW 22:44:45 10° NNE
SL-08 RB Rocket 4.0 22:35:39 16° S 22:39:12 64° WSW 22:43:42 10° NNW
USA 238 DEB 3.9 22:35:25 10° SSW 22:42:17 55° ESE 22:49:08 10° NE
USA 238 3.9 22:35:32 10° SSW 22:42:23 54° ESE 22:49:13 10° NE
Cosmos 1346 Rocket 4.0 22:39:39 10° SW 22:43:21 40° WNW 22:47:07 10° N
Cosmos 1954 Rocket 4.0 22:41:00 10° SSW 22:46:19 86° ESE 22:51:39 10° NNE
Cosmos 1842 3.3 22:46:00 16° SSW 22:49:04 76° W 22:52:59 10° N
Cosmos 2279 Rocket 4.4 22:43:21 10° NNW 22:49:30 62° W 22:54:57 14° S
Cosmos 1607 4.2 22:45:37 12° S 22:51:12 47° ESE 22:57:07 10° NE
Cosmos 2208 Rocket 4.0 22:48:09 10° NNW 22:53:22 87° WSW 22:56:31 24° SSE
Cosmos 1932 4.4 22:50:29 10° SSW 22:56:39 81° SE 23:02:56 10° NE
ISS -2.1 22:54:50 10° W 22:58:00 44° N 23:01:10 10° ENE
SeaSat 1 4.2 22:55:15 10° SSW 22:59:07 23° WSW 23:03:02 10° NW
Cosmos 1733 4.2 22:55:41 10° N 22:59:15 34° ENE 23:00:39 26° ESE
CARTOSAT-1 3.7 22:59:20 25° S 23:01:49 70° WSW 23:06:09 10° NNW
CZ-4C R/B 3.2 23:02:16 24° SE 23:03:33 26° ESE 23:08:19 10° ENE
Okean 3 Rocket 4.3 23:02:18 28° SE 23:03:53 37° E 23:07:58 10° NNE
ARGOS 4.3 22:59:51 12° SSW 23:04:23 38° W 23:09:26 10° NNW
Geosat 3.9 23:04:33 10° NNE 23:09:37 77° ESE 23:13:48 15° SSW
Cosmos 1741 Rocket 4.0 23:06:01 20° S 23:09:39 69° ESE 23:14:58 10° NNE
NOSS 3-2 (C) 4.3 23:14:45 26° SSE 23:16:47 31° ESE 23:22:30 10° NE
Cosmos 1758 4.4 23:13:44 10° NNW 23:17:36 40° W 23:19:54 21° SSW
Cosmos 2369 Rocket 4.5 23:15:07 10° WNW 23:18:01 14° W 23:20:54 10° SW
Cosmos 1850 Rocket 4.0 23:21:45 18° SSW 23:25:41 86° WNW 23:30:57 10° NNE
Cosmos 1842 Rocket 4.1 23:23:18 10° NNW 23:27:35 52° W 23:29:43 27° SSW
IGS 5A 4.3 23:25:38 25° SSW 23:27:37 42° W 23:31:36 10° NNW
ALOS 2 4.1 23:26:08 19° ESE 23:28:06 27° ENE 23:31:46 10° N
Cosmos 1340 2.6 23:27:27 44° SSE 23:28:29 70° E 23:32:17 10° NNE
H-2A R/B 2.8 23:26:07 21° SSW 23:29:05 42° W 23:33:57 10° NNW
Cosmos 1544 3.6 23:28:02 10° NNW 23:31:44 55° W 23:32:59 35° SSW
Cosmos 1140 Rocket 3.9 23:27:12 11° SW 23:32:10 61° WNW 23:37:23 10° NNE
Cosmos 2369 4.3 23:26:50 10° NNW 23:32:21 50° NE 23:35:39 23° ESE
Spot 4 4.5 23:30:13 25° SSW 23:32:40 48° W 23:37:19 10° NNW
Meteor 2-5 Rocket 3.8 23:31:04 29° S 23:34:12 73° E 23:39:57 10° NNE
Terra 2.9 23:32:28 21° SSW 23:35:05 37° W 23:39:31 10° NNW
Lacrosse 4 Rocket 4.1 23:33:20 10° W 23:36:25 20° NW 23:39:34 10° N
Cosmos 468 Rocket 4.1 23:31:48 10° NNW 23:37:05 67° ENE 23:39:28 32° SE
Cosmos 1470 2.9 23:33:43 10° NNW 23:37:36 64° W 23:38:47 40° SSW
Meteor 2-1 Rocket 4.4 23:36:57 10° N 23:42:52 71° ENE 23:45:38 32° SSE
H-2A R/B 3.6 23:41:45 10° NE 23:45:01 26° E 23:45:12 25° E
Meteor 1-16 Rocket 4.2 23:40:54 10° N 23:46:33 86° ENE 23:49:15 34° SSE
Cosmos 1814 Rocket 4.1 23:41:40 10° NNW 23:46:58 72° ENE 23:49:19 34° SE
Cosmos 1980 Rocket 4.2 23:43:10 10° N 23:47:29 22° NE 23:51:47 10° E
ATLAS 3B R/B 4.1 23:40:58 10° WSW 23:48:12 43° NW 23:55:13 10° NE
Cosmos 1553 Rocket 4.3 23:42:38 10° N 23:48:55 59° ENE 23:52:07 30° SE
Cosmos 405 Rocket 3.7 23:49:35 31° ESE 23:49:49 31° E 23:53:11 10° NNE
Lacrosse 5 2.7 23:45:30 10° NW 23:50:26 48° NNE 23:55:03 11° E
Cosmos 2278 3.7 23:48:23 10° NNW 23:54:05 79° ENE 23:56:43 33° SE
Cosmos 614 Rocket 4.4 23:50:22 18° SW 23:54:09 62° WNW 23:59:21 10° NNE
